Location: *
(53.9002°N, 27.5624°E)
Time: 04:47:17
(UTC+00:00)

Cosmos 1408 - Pass Details

Date: 12 November 2019
Orbit: 470 x 496 km, 82.6° (Epoch: 14 December)

Event Time Altitude Azimuth Distance (km) Brightness Sun altitude
Rises 15:24:18 0° 344° (NNW) 2,560 6.2 -10.0°
Reaches altitude 10° 15:26:28 10° 339° (NNW) 1,670 5.4 -10.3°
Maximum altitude 15:29:58 46° 265° (W) 650 3.7 -10.8°
Drops below altitude 10° 15:33:25 10° 191° (S) 1,642 5.6 -11.3°
Sets 15:35:32 0° 185° (S) 2,511 6.5 -11.6°
